Wind_Speed
51 54 54 51 51 51 54 54 53 54 62 58 51 50 51 53 55 53 53 56 57 57 60 60 63 64 60 57 56 54 57 58
53 56 54 56 56 52 55 52 57 60 63 61 56 54 55 57 59 57 58 60 60 59 60 60 66 67 61 59 59 62 58 54
60 57 56 55 56 54 52 51 54 58 63 61 61 59 61 64 64 61 62 65 64 62 60 63 68 64 62 61 67 61 55 52
62 60 59 61 58 58 53 55 57 61 64 62 60 64 66 67 66 64 66 67 66 63 62 68 67 63 64 65 66 59 57 58
57 59 61 64 63 55 54 56 58 61 63 62 63 65 67 69 67 63 64 68 67 66 66 70 63 65 66 69 62 62 60 65
64 65 67 64 60 56 57 53 51 54 58 59 58 64 67 71 68 64 65 68 68 68 67 65 65 66 68 70 63 61 65 62
65 70 71 67 62 55 56 53 57 58 59 58 60 60 61 67 66 65 65 70 67 68 70 64 66 68 75 69 63 66 61 53
73 73 73 70 64 55 58 58 65 63 64 60 55 60 62 64 66 64 68 71 67 69 71 66 67 70 75 70 67 64 55 52
73 71 71 72 70 65 61 60 68 67 60 56 58 58 60 61 65 64 68 69 68 73 71 69 69 75 71 65 66 58 53 54
74 76 69 61 64 66 61 60 74 69 60 57 59 61 59 62 65 64 66 66 71 75 71 70 72 76 68 69 62 54 55 55
73 79 74 68 62 58 61 67 73 66 59 55 61 61 62 66 62 64 65 66 70 73 72 71 76 71 69 64 55 56 54 51
69 74 75 70 62 62 64 73 69 61 60 63 61 61 66 65 60 63 64 67 71 71 71 72 75 69 66 56 57 55 50 46
71 70 70 74 60 66 70 76 68 66 66 65 62 64 70 63 63 62 65 67 71 70 69 74 69 68 59 55 56 52 47 44
71 76 79 82 60 72 75 75 70 70 71 67 61 66 66 61 62 63 64 69 69 69 70 71 64 61 53 57 54 48 45 45
78 79 72 77 64 73 76 77 74 74 71 66 60 65 63 60 62 62 65 66 66 66 70 61 64 55 54 58 51 46 47 46
80 86 83 84 72 79 76 76 75 71 65 59 63 68 60 60 60 63 64 62 64 65 65 59 60 51 55 53 47 47 47 42
77 78 78 77 73 69 74 65 64 61 57 61 64 65 60 58 60 60 60 60 61 65 57 59 52 50 55 47 46 46 41 33
73 76 84 77 73 69 70 65 64 59 57 61 58 61 59 55 59 58 57 59 62 58 53 54 48 52 49 45 45 41 35 29
74 77 84 73 69 63 64 62 62 59 57 61 59 59 56 57 56 55 57 59 57 50 54 46 47 51 44 42 42 34 27 26
80 84 72 77 60 55 59 58 56 56 60 61 58 57 53 53 54 54 56 56 50 51 47 43 47 44 40 39 36 28 25 29
Wind_Direction
251 258 259 259 265 267 270 278 288 293 290 292 297 294 301 300 301 306 312 315 311 309 313 314 312 311 311 308 301 298 299 297
261 261 261 261 263 265 267 274 286 284 287 290 292 295 297 298 301 304 309 310 311 310 316 313 312 310 311 306 303 302 297 291
263 260 259 262 264 266 268 276 283 281 285 289 291 294 295 299 300 308 307 307 311 312 317 313 312 311 310 308 307 304 300 296
258 259 259 262 266 268 277 285 284 283 284 288 293 296 295 297 299 306 305 308 311 315 316 313 312 312 312 309 308 304 300 298
254 260 261 260 265 269 277 282 281 282 286 289 295 295 295 296 298 302 304 307 312 315 312 312 312 311 311 312 306 304 301 301
262 266 265 265 266 266 276 282 284 287 288 292 295 294 295 295 299 301 305 308 309 311 307 312 312 312 312 311 306 304 305 300
270 268 266 268 271 269 272 276 282 282 288 290 289 294 295 296 299 301 306 307 307 306 310 312 312 314 312 308 307 306 303 296
269 269 269 266 269 268 272 277 284 281 283 287 292 291 292 294 296 301 302 306 305 307 312 314 313 312 311 308 309 310 304 299
266 266 270 270 267 270 274 283 281 283 282 290 292 291 292 294 294 301 303 304 305 308 312 311 313 311 309 308 311 309 306 305
262 264 269 271 269 270 273 281 277 280 284 294 293 291 291 293 297 304 301 304 306 309 310 311 312 310 311 312 312 308 306 306
262 263 269 269 271 268 274 276 276 280 286 291 290 291 293 294 300 300 302 304 307 308 309 311 311 311 313 313 311 313 311 307
267 267 271 267 267 268 275 273 277 283 287 287 288 288 291 294 298 300 301 304 305 308 309 309 310 313 316 312 317 316 311 309
266 266 268 268 269 269 267 270 277 280 283 284 286 289 289 292 296 298 299 303 304 306 307 309 312 316 315 316 319 315 313 309
259 260 261 263 264 264 266 270 273 276 280 282 284 284 284 292 295 296 299 301 303 305 308 308 312 314 314 320 317 315 312 314
255 255 256 262 258 262 267 265 269 274 279 282 279 279 285 288 290 294 297 299 302 304 306 309 312 311 320 318 315 315 315 313
257 260 259 260 265 267 268 272 273 276 282 279 276 279 287 286 289 291 294 297 300 304 305 308 310 314 319 316 316 318 316 310
256 258 258 261 262 262 270 270 272 274 275 273 275 279 283 286 288 290 293 297 299 302 306 307 308 320 318 314 321 317 314 304
251 256 262 263 265 264 269 268 267 270 269 271 274 275 280 286 286 289 293 295 300 303 305 306 312 319 315 322 318 315 308 298
252 256 262 262 265 263 266 267 265 267 266 267 269 273 278 281 285 288 291 296 301 304 304 306 317 316 317 321 317 314 305 308
255 257 260 263 265 264 262 262 262 263 261 261 266 271 277 280 283 288 293 298 300 303 305 312 316 314 320 317 317 311 309 315
Height
10922 10922 10923 10923 10923 10927 10926 10925 10924 10923 10921 10921 10921 10918 10915 10911 10908 10905 10903 10900 10895 10888 10882 10875 10867 10864 10859 10853 10848 10843 10839 10833
10914 10914 10915 10915 10917 10919 10919 10920 10918 10916 10913 10912 10913 10910 10907 10902 10899 10897 10894 10889 10884 10879 10873 10865 10857 10851 10846 10842 10836 10831 10824 10818
10907 10906 10906 10906 10908 10912 10913 10915 10912 10908 10904 10903 10904 10901 10897 10892 10889 10886 10882 10877 10872 10867 10861 10853 10847 10839 10833 10827 10821 10814 10808 10803
10898 10897 10899 10896 10902 10904 10908 10906 10903 10899 10894 10894 10895 10889 10885 10882 10878 10875 10870 10865 10859 10855 10849 10841 10834 10826 10821 10814 10807 10800 10793 10789
10890 10886 10886 10887 10891 10897 10900 10897 10895 10889 10885 10885 10886 10880 10875 10871 10869 10865 10860 10854 10848 10844 10838 10831 10822 10816 10808 10801 10794 10786 10779 10772
10882 10875 10872 10877 10884 10890 10892 10889 10884 10879 10877 10877 10876 10871 10865 10858 10857 10854 10850 10843 10837 10834 10827 10819 10810 10804 10796 10789 10782 10773 10765 10756
10868 10864 10861 10868 10872 10882 10883 10879 10873 10871 10871 10872 10868 10863 10858 10848 10845 10842 10838 10831 10828 10822 10816 10808 10799 10790 10783 10776 10767 10759 10749 10742
10853 10854 10853 10860 10862 10870 10870 10867 10858 10862 10862 10864 10862 10856 10850 10844 10835 10832 10827 10822 10816 10810 10803 10795 10787 10779 10770 10760 10752 10741 10735 10728
10845 10843 10843 10850 10856 10858 10861 10858 10842 10846 10852 10854 10852 10846 10840 10834 10828 10825 10818 10812 10805 10798 10791 10784 10775 10768 10758 10748 10738 10728 10721 10714
10836 10826 10836 10844 10845 10852 10847 10849 10828 10837 10844 10841 10836 10833 10829 10825 10817 10814 10807 10802 10795 10788 10782 10772 10765 10757 10745 10735 10725 10717 10708 10701
10821 10818 10825 10832 10836 10839 10838 10829 10819 10830 10832 10831 10826 10822 10816 10811 10807 10803 10797 10792 10785 10778 10771 10761 10755 10744 10733 10723 10714 10704 10697 10690
10811 10809 10813 10817 10826 10825 10824 10805 10815 10824 10823 10816 10816 10812 10806 10800 10798 10793 10788 10782 10774 10768 10760 10753 10743 10731 10722 10712 10702 10693 10687 10679
10796 10798 10800 10794 10819 10813 10807 10796 10808 10809 10810 10808 10806 10800 10793 10791 10789 10784 10777 10772 10765 10758 10751 10742 10731 10721 10712 10702 10693 10684 10677 10670
10785 10782 10782 10773 10811 10794 10790 10791 10796 10798 10797 10798 10795 10788 10783 10784 10780 10774 10768 10762 10755 10749 10741 10732 10722 10713 10703 10693 10685 10677 10669 10661
10760 10758 10763 10759 10791 10779 10776 10777 10784 10785 10786 10788 10785 10774 10776 10775 10771 10765 10760 10754 10747 10740 10732 10723 10714 10704 10695 10685 10677 10669 10660 10653
10746 10743 10755 10752 10776 10763 10765 10766 10771 10776 10778 10776 10771 10764 10767 10764 10762 10757 10751 10746 10739 10732 10724 10714 10706 10696 10687 10678 10669 10660 10652 10646
10727 10730 10739 10743 10753 10758 10752 10762 10759 10764 10767 10762 10759 10756 10757 10755 10752 10748 10743 10737 10732 10724 10715 10706 10697 10688 10679 10670 10660 10653 10646 10641
10712 10713 10719 10729 10737 10744 10744 10748 10749 10753 10753 10749 10750 10747 10747 10746 10742 10738 10733 10729 10722 10714 10706 10698 10689 10681 10672 10660 10653 10647 10641 10636
10695 10701 10705 10714 10724 10731 10732 10737 10735 10738 10739 10736 10736 10738 10738 10735 10733 10729 10725 10719 10713 10706 10698 10689 10681 10673 10663 10654 10648 10641 10636 10631
10681 10685 10704 10696 10724 10720 10715 10717 10721 10724 10722 10722 10726 10728 10728 10725 10723 10720 10716 10710 10704 10697 10689 10682 10674 10665 10656 10649 10642 10636 10631 10625